Resourcesat-2A

operational
NORAD ID: 41877 Int'l Des: 2016-074 Owner: ISRO Country: IN
LEOCIRCULARRETROGRADESSO

About Resourcesat-2A

Description loading...

Live Position

Loading 3D Globe...

Upcoming Passes

Altitude History

Altitude vs Time

uPlot chart will show altitude changes over time

Two-Line Element Set

1 41877U 16074A 26062.63780697 .00000211 00000-0 11641-3 0 9997
2 41877 98.7620 136.9729 0002794 48.5687 311.5730 14.21597886479302
Epoch: Mar 3, 2026 • Age: 39 hours

Current Status

Altitude 824.1 km
Velocity 7.45 km/s
Sub-Earth Point 42.05°N, 100.29°E
Launch Date Dec 7, 2016
Age 9.2 years
Type other

Technical Details

Classification Payload
Mass 1235.00 kg
Dry Mass 1100.00 kg
Total Mass 1235.00 kg
Length 2.80 m
Diameter 2.00 m
Span 12.00 m
Shape Box + 2 Pan
Manufacturer ISAC/HAL
Bus Type IRS
Phase Status In Orbit
Owner/State ISRO/IN

Large Constellations

Loading constellations...